Regional Weather Roundup
Issued by NWS

Home | Current Version | Previous Version | Graphics & Text | Print | Product List | Glossary On
Versions: 1 2 3 4 5 6 7 8 9 10 11 12 13 14 15 16 17 18 19 20 21 22 23 24 25 26 27 28 29 30 31 32 33 34 35 36 37 38 39 40 41 42 43 44 45 46 47 48 49 50
000
ASUS43 KLMK 191902
RWRKY
KENTUCKY REGIONAL WEATHER ROUNDUP
NATIONAL WEATHER SERVICE LOUISVILLE KY
300 PM EDT THU APR 19 2018

NOTE "FAIR" INDICATES FEW OR NO CLOUDS BELOW 12,000 FEET
WITH NO SIGNIFICANT WEATHER AND/OR OBSTRUCTIONS TO VISIBILITY.

KYZ001>023-026-027-061>063-070>075-192000-
WESTERN AND SOUTH CENTRAL KENTUCKY

CITY           SKY/WX    TMP DP  RH WIND       PRES   REMARKS
PADUCAH        PTSUNNY   52  32  46 NE12      30.37R
HENDERSON      CLOUDY    47  34  60 NW8       30.37R
OWENSBORO      CLOUDY    47  33  58 N10G18    30.35R
HOPKINSVILLE   CLOUDY    47  30  51 N8        30.34R
BOWLING GREEN  CLOUDY    49  31  49 MISG      30.32R
GLASGOW        NOT AVBL
$$

KYZ024-025-028>034-038-045-046-053-192000-
NORTH CENTRAL KENTUCKY

CITY           SKY/WX    TMP DP  RH WIND       PRES   REMARKS
LOUISVILLE/SDF PTSUNNY   50  32  50 N8G21     30.31R
LOUISVILLE/LOU CLOUDY    48  35  60 N13G23    30.32R
FORT KNOX      CLOUDY    47  32  54 NW13      30.31R
$$

KYZ035>037-039>044-047>052-055>060-089>105-192000-
NORTHEAST KENTUCKY

CITY           SKY/WX    TMP DP  RH WIND       PRES   REMARKS
LEXINGTON      CLOUDY    45  32  60 NW8       30.28R
COVINGTON      PTSUNNY   49  30  48 N13G21    30.26R
FRANKFORT      CLOUDY    47  31  53 NW10      30.28R
$$

KYZ054-064>069-076>088-106>120-192000-
SOUTHEAST KENTUCKY

CITY           SKY/WX    TMP DP  RH WIND       PRES   REMARKS
JACKSON        CLOUDY    41  29  62 W7        30.24R
LONDON         CLOUDY    44  30  57 NW13G22   30.26R
SOMERSET       NOT AVBL
MIDDLESBORO    PTSUNNY   50  32  50 NW16G23   30.24R
MONTICELLO     CLOUDY    46  31  55 N14G24    30.31R
$$





USA.gov is the U.S. government's official web portal to all federal, state and local government web resources and services.